Location: Sobotiste
(48.7170°N, 17.4000°E)
Time: 16:10:25
(UTC+02:00)

ACS3 Solar Sail - Visible Passes

Search period start: 21 May 2026 00:00
Search period end: 31 May 2026 00:00
Orbit: 902 x 937 km, 97.2° (Epoch: 21 May)

Date Brightness Start Highest point End Pass type
(mag) Time Alt. Az. Time Alt. Az. Time Alt. Az.
21 May 3.0 00:36:22 10° NNE 00:41:23 28° E 00:43:40 22° SE visible
21 May 2.1 02:18:17 10° N 02:24:00 54° WNW 02:27:08 26° SW visible
21 May 3.8 04:03:22 10° NNW 04:05:04 11° NW 04:06:45 10° WNW visible
22 May 2.8 00:44:35 10° NNE 00:49:51 33° E 00:52:12 25° SE visible
22 May 2.3 02:26:43 10° N 02:32:19 47° WNW 02:35:40 23° SW visible
23 May 2.6 00:52:50 10° NNE 00:58:18 38° E 01:00:44 27° SE visible
23 May 2.5 02:35:11 10° N 02:40:38 40° WNW 02:44:12 20° SW visible
24 May 2.3 01:01:05 10° NNE 01:06:44 45° E 01:09:15 29° SSE visible
24 May 2.7 02:43:40 10° N 02:48:56 35° WNW 02:52:43 17° WSW visible
25 May 2.1 01:09:23 10° NNE 01:15:09 52° E 01:17:45 31° SSE visible
25 May 2.9 02:52:09 10° N 02:57:13 31° WNW 03:01:13 15° WSW visible
26 May 1.9 01:17:41 10° NNE 01:23:34 61° E 01:26:16 32° SSE visible
26 May 3.1 03:00:40 10° N 03:05:28 27° WNW 03:09:44 12° WSW visible
26 May 3.8 23:46:21 10° ENE 23:48:34 12° E 23:50:47 10° ESE visible
27 May 1.8 01:26:01 10° NNE 01:31:57 71° E 01:34:46 33° S visible
27 May 3.2 03:09:13 10° N 03:13:43 23° WNW 03:18:14 10° WSW visible
27 May 3.7 23:53:57 10° NE 23:57:05 14° E 23:59:48 11° ESE visible
28 May 1.7 01:34:21 10° NNE 01:40:18 83° E 01:43:15 32° S visible
28 May 3.4 03:17:47 10° NNW 03:21:57 20° WNW 03:26:08 10° WSW visible
29 May 3.5 00:01:48 10° NE 00:05:35 17° E 00:08:17 13° ESE visible
29 May 1.7 01:42:42 10° NNE 01:48:40 86° WNW 01:51:45 31° SSW visible
29 May 3.6 03:26:23 10° NNW 03:30:10 18° NW 03:33:56 10° W visible
30 May 3.4 00:09:47 10° NE 00:14:04 20° E 00:16:46 15° ESE visible
30 May 1.7 01:51:04 10° N 01:57:00 75° WNW 02:00:14 28° SSW visible
30 May 3.7 03:35:03 10° NNW 03:38:21 16° NW 03:41:40 10° W visible
